Weather in Kintanovo

Russia / Yaroslavl Oblast     58°22′18″N   40°57′05″E
temp.,
°C
wind,
m/s
gust,
m/s
humid.,
%
clouds,
%
prec.,
mm/h
press.,
hPa
HPBL,
m
8 march, mon
mon800:00−13wnw238739 0.0 99021
03:00−16sw118923 0.0 99220
06:00−17nw129330 0.0 99320
09:00−13nw129115 0.0 994119
12:00−8n358851 0.1 997644
15:00−8n468575 0.2 1000832
18:00−11n3793100 0.1 1004402
21:00−14n399292 0.1 1007368
9 march, tue
tue900:00−18n379542 0.0 1009168
03:00−22n259724 0.0 1012120
06:00−24n25970 0.0 101494
09:00−22n36945 0.0 1016262
12:00−18n358864 0.0 1017444
15:00−16n358681 0.0 1017607
18:00−20n2594100 0.0 1019102
21:00−23n399587 0.0 1022214
10 march, wed
wed1000:00−26n23960 0.0 102380
03:00−28n23960 0.0 102448
06:00−29n22950 0.0 102526
09:00−24n149116 0.0 1026204
12:00−17nnw238365 0.0 1026491
15:00−15nw248283 0.0 1026708
18:00−18wnw239399 0.0 102622
21:00−21wnw239864 0.0 102828
11 march, thu
thu1100:00−22nw22984 0.0 102820
03:00−22wnw22993 0.0 102920
06:00−22wnw22991 0.0 102923
09:00−18wnw24940 0.0 1030163
12:00−10wnw238225 0.0 1029391
15:00−8wsw247913 0.0 1029530
18:00−12sw23930 0.0 102948
21:00−16sw23960 0.0 102932
12 march, fri
fri1200:00−18ssw239824 0.0 102962
03:00−19s369731 0.0 1029124
06:00−20ssw312910 0.0 1028264
09:00−16s411800 0.0 1027361
12:00−11s511750 0.0 1025562
15:00−8s612760 0.0 1022747
18:00−10s6158267 0.0 1019660
21:00−10s6168483 0.0 1018793